< < Back
Terminal Aerodrome Forecast


Current Version              Previous Versions:   1  2  3  4  5  6  7  8  9  

Terminal Aerodrome Forecast

455
FTUS44 KBMX 270713 AAA
TAFANB
TAF AMD
KANB 270713Z 2707/2806 00000KT P6SM SCT027
     FM271000 15003KT P6SM BKN013 BKN027
     FM271500 21007KT P6SM BKN035
     FM271800 21008KT P6SM VCTS SCT050CB=

Latest METAR

203
SAUS70 KWBC 271700 RRD
MTRANB
METAR KANB 271653Z AUTO 23007KT 10SM SCT028 OVC044 28/21 A3008 RMK AO2
SLP176 T02830211


USA.gov is the U.S. government's official web portal to all federal, state and local government web resources and services.